User: anonymous   Login
Location: Heidgraben
(53.7081°N, 9.6576°E)
Time: 13:54:30
(UTC+00:00)
Language:

Meteor 2-3 Rocket - Orbit

View from above orbital plane
View from above orbital plane
View from above satellite
View from above satellite

Ground track
Ground track

The orbit data is extracted from the following two-line orbital elements,

1 10515U 77117B   20274.90142144 -.00000087 +00000-0 -57849-4 0  9999
2 10515 081.2460 190.9699 0031535 086.5336 273.9440 14.08706288198737
Epoch (UTC): 30 September 2020 21:38:02
Eccentricity: 0.0031535
inclination: 81.2460°
perigee height: 841 km
apogee height: 886 km
right ascension of ascending node: 190.9699°
argument of perigee: 86.5336°
revolutions per day: 14.08706288
mean anomaly at epoch: 273.9440°
orbit number at epoch: 19873

The dashed part of the orbit path shows where the satellite is in the earth's shadow,  

DLR